Flag for U.S.A. Weather past 2 weeks in Winder, Georgia, U.S.A.

Now
36 °F

Fog.


Feels Like: 31 °F
Forecast: 37 / 47 °F
Wind: 6 mph from East

Location: Winder-Barrow Airport

Current Time: Mar 1, 2015 at 6:27:33 AM

Latest Report: Mar 1, 2015 at 5:55 AM


Visibility: 5 mi

Pressure: 30.54 "Hg

Humidity: 100%

Dew point: 36 °F

Location of WinderLocation

Historic Weather in Winder — Graph

°F

Winder temperature yesterday

Maximum temperature yesterday: 52 °F (at 3:15 PM)
Minimum temperature yesterday: 34 °F (at 12:55 AM)
Average temperature yesterday: 42 °F

Past Weeks' High & Low Weather Summary

 TemperatureHumidityPressure
High61 °F (Feb 14, 3:35 PM)100% (Feb 16, 4:15 PM)30.65 "Hg (Feb 16, 4:15 PM)
Low18 °F (Feb 19, 5:35 AM)17% (Feb 15, 4:15 PM)29.71 "Hg (Feb 26, 2:35 AM)
Average37 °F71%30.18 "Hg
* Reported Feb 14 5:15 AM — Mar 1 5:15 AM, Winder, Weather by CustomWeather, © 2015

Note: Actual official high and low records may vary slightly from our data, if they occured in-between our weather recording intervals... More about our weather records

Advertising

Winder weather history for previous 24 hours

 ConditionsComfort  
Time TempWeatherWind HumidityBarometerVisibility
5:15 AM
Sun, Mar 1
36 °FFog.7 mph100%30.54 "Hg5 mi
4:55 AM36 °FFog.7 mph100%30.53 "Hg3 mi
4:35 AM36 °FLight rain. Low clouds.5 mph100%30.53 "Hg3 mi
4:15 AM36 °FDrizzle. Low clouds.9 mph100%30.54 "Hg3 mi
3:55 AM36 °FRain. Low clouds.5 mph100%30.55 "Hg3 mi
3:35 AM36 °FLight rain. Low clouds.3 mph100%30.56 "Hg5 mi
3:15 AM36 °FLight rain. Low clouds.8 mph100%30.56 "Hg5 mi
2:55 AM37 °FDrizzle. Mostly cloudy.6 mph93%30.57 "Hg7 mi
2:35 AM37 °FOvercast.8 mph93%30.58 "Hg7 mi
2:15 AM37 °FRain. Mostly cloudy.7 mph93%30.59 "Hg5 mi
1:55 AM37 °FLight rain. Overcast.5 mph93%30.60 "Hg10 mi
1:35 AM39 °FDrizzle. Overcast.7 mph81%30.60 "Hg7 mi
1:15 AM41 °FRain. Overcast.8 mph70%30.60 "Hg10 mi
12:55 AM43 °FOvercast.6 mph66%30.60 "Hg10 mi
12:15 AM43 °FOvercast.7 mph66%30.60 "Hg10 mi
11:55 PM
Sat, Feb 28
43 °FDrizzle. Overcast.8 mph66%30.61 "Hg10 mi
11:35 PM45 °FOvercast.10 mph61%30.62 "Hg10 mi
11:15 PM45 °FOvercast.6 mph57%30.61 "Hg10 mi
10:55 PM45 °FOvercast.9 mph57%30.61 "Hg10 mi
10:15 PM45 °FOvercast.7 mph57%30.61 "Hg10 mi
9:55 PM45 °FMostly cloudy.7 mph61%30.60 "Hg10 mi
9:35 PM45 °FMostly cloudy.10 mph61%30.60 "Hg10 mi
9:15 PM45 °FMostly cloudy.7 mph61%30.60 "Hg10 mi
8:55 PM46 °FOvercast.8 mph53%30.59 "Hg10 mi
8:35 PM46 °FOvercast.8 mph53%30.59 "Hg10 mi
8:15 PM46 °FOvercast.7 mph53%30.58 "Hg10 mi
7:55 PM46 °FOvercast.7 mph57%30.58 "Hg10 mi
7:35 PM46 °FOvercast.8 mph53%30.57 "Hg10 mi
7:15 PM45 °FPassing clouds.7 mph61%30.57 "Hg10 mi
6:55 PM45 °FClear.6 mph61%30.56 "Hg10 mi
6:35 PM46 °FClear.7 mph53%30.56 "Hg10 mi
6:15 PM48 °FSunny.5 mph50%30.55 "Hg10 mi
5:55 PM50 °FSunny.8 mph50%30.55 "Hg10 mi
5:35 PM52 °FSunny.7 mph47%30.55 "Hg10 mi
5:15 PM52 °FSunny.8 mph47%30.54 "Hg10 mi
4:55 PM52 °FScattered clouds.9 mph44%30.54 "Hg10 mi
4:15 PM52 °FSunny.9 mph44%30.54 "Hg10 mi
3:55 PM52 °FSunny.3 mph44%30.54 "Hg10 mi
3:15 PM52 °FSunny.9 mph44%30.55 "Hg10 mi
2:55 PM50 °FSunny.5 mph47%30.55 "Hg10 mi
2:35 PM48 °FSunny.9 mph46%30.56 "Hg10 mi
2:15 PM50 °FSunny.8 mph47%30.57 "Hg10 mi
1:55 PM50 °FSunny.9 mph47%30.58 "Hg10 mi
1:35 PM48 °FSunny.9 mph50%30.58 "Hg10 mi
1:15 PM50 °FSunny.5 mph47%30.60 "Hg10 mi
12:55 PM50 °FSunny.6 mph47%30.60 "Hg10 mi
12:35 PM48 °FScattered clouds.13 mph50%30.61 "Hg10 mi
12:15 PM46 °FScattered clouds.10 mph50%30.62 "Hg10 mi
11:55 AM45 °FSunny.6 mph53%30.63 "Hg10 mi
11:35 AM45 °FSunny.7 mph53%30.64 "Hg10 mi
11:15 AM45 °FPartly sunny.9 mph53%30.65 "Hg10 mi
10:55 AM43 °FOvercast.12 mph57%30.65 "Hg10 mi
10:35 AM41 °FMostly cloudy.7 mph57%30.65 "Hg10 mi
10:15 AM41 °FMore clouds than sun.13 mph61%30.65 "Hg10 mi
9:55 AM39 °FMore clouds than sun.10 mph61%30.65 "Hg10 mi
9:35 AM39 °FMostly cloudy.7 mph65%30.65 "Hg10 mi
9:15 AM37 °FBroken clouds.12 mph65%30.64 "Hg10 mi
8:55 AM37 °FSunny.8 mph70%30.64 "Hg10 mi
8:35 AM37 °FSunny.6 mph70%30.62 "Hg10 mi
8:15 AM36 °FSunny.8 mph75%30.62 "Hg10 mi
7:55 AM36 °FSunny.9 mph81%30.61 "Hg10 mi
7:35 AM36 °FSunny.7 mph81%30.60 "Hg10 mi
7:15 AM36 °FScattered clouds.7 mph81%30.59 "Hg10 mi
6:55 AM36 °FPassing clouds.7 mph81%30.58 "Hg10 mi
6:15 AM36 °FPassing clouds.6 mph81%30.57 "Hg10 mi
Weather by CustomWeather, © 2015

See weather overviewHow to use our weather pages